Regional Weather Roundup
Issued by NWS Upton, NY

Current Version | Previous Version | Graphics & Text | Print | Product List | Glossary Off
Versions: 1 2 3 4 5 6 7 8 9 10 11 12 13 14 15 16 17 18 19 20 21 22 23 24 25 26 27 28 29 30 31 32 33 34 35 36 37 38 39 40 41 42 43 44 45 46 47 48 49 50
290 ASUS41 KOKX 202008 RWROKX REGIONAL WEATHER ROUNDUP NATIONAL WEATHER SERVICE NEW YORK NY 300 PM EST MON FEB 20 2017 NOTE: "FAIR" INDICATES FEW OR NO CLOUDS BELOW 12,000 FEET WITH NO SIGNIFICANT WEATHER AND/OR OBSTRUCTIONS TO VISIBILITY. NYZ071-072-176-178-NJZ106-104-202100- NEW YORK CITY METRO AREA CITY SKY/WX TMP DP RH WIND PRES REMARKS Central Park SUNNY 54 13 19 VRB3G17 30.19S Wall St Helipt NOT AVBL LaGuardia APRT SUNNY 54 18 24 NW10G22 30.16S Kennedy INTL MOSUNNY 55 19 24 N16G22 30.17S Breezy Point N/A 52 N/A N/A NW12 N/A Newark/Liberty MOSUNNY 55 10 16 NW20G26 30.17S Teterboro SUNNY 54 16 22 N12G22 30.17R $$ NYZ177-179-078>081-202100- LONG ISLAND NEW YORK CITY SKY/WX TMP DP RH WIND PRES REMARKS Jones Beach N/A 52 N/A N/A NW13G18 N/A Matinecock PT N/A 52 N/A N/A N14 N/A Farmingdale SUNNY 53 16 23 N17G23 30.15F MacArthur/ISP SUNNY 51 17 26 N15 30.15S Shirley SUNNY 49 14 24 N20G25 30.17R Westhampton SUNNY 50 17 27 NW15G24 30.17R Southampton NOT AVBL Bridgehampton NOT AVBL East Hampton N/A 48 20 33 N12 30.15R Montauk N/A 48 26 42 NW9 30.17R $$ NYZ052-065-067-202100- HUDSON VALLEY CITY SKY/WX TMP DP RH WIND PRES REMARKS White Plains SUNNY 52 15 23 N16 30.15S Newburgh SUNNY 50 18 27 NE16 30.19R Montgomery SUNNY 50 17 27 NE13 30.17R Poughkeepsie SUNNY 46 14 27 NE15 30.20S Albany SUNNY 41 20 43 NE9 30.26S $$ NJZ001-105-106-008-010-013-015-019>022-104-202100- NEW JERSEY CITY SKY/WX TMP DP RH WIND PRES REMARKS Newark/Liberty MOSUNNY 55 10 16 NW20G26 30.17S Teterboro SUNNY 54 16 22 N12G22 30.17R Caldwell SUNNY 54 11 18 N10G20 30.19R Somerville SUNNY 55 15 20 NW15G21 30.18R Linden NOT AVBL Sussex SUNNY 50 12 21 NW9 30.20S Andover N/A 51 14 22 N10 30.20R Trenton SUNNY 56 23 27 N14 30.18S Millville SUNNY 58 30 34 N10 30.18S Atlantic City SUNNY 59 27 29 NW13 30.17R Wrightstown SUNNY 56 23 27 NW15 30.16S Toms River SUNNY 56 24 29 NW16G23 30.17F Belmar SUNNY 56 17 21 NW15G23 30.17S $$ PAZ047>061-062-071-202100- EASTERN PENNSYLVANIA CITY SKY/WX TMP DP RH WIND PRES REMARKS Philadelphia MOSUNNY 57 24 28 NW16G22 30.21R Allentown SUNNY 55 19 24 N13 30.21R Scranton SUNNY 49 21 33 N14 30.23R $$ CTZ002-004>006-009-010-012-RIZ004-006-007-MAZ004-011-015-202100- SOUTHERN NEW ENGLAND IN CT CITY SKY/WX TMP DP RH WIND PRES REMARKS Bradley INTL SUNNY 46 20 35 N10G20 30.18R Hartford SUNNY 47 23 38 N13 30.18R Danbury SUNNY 46 13 26 N16G24 30.19R Wtrbury/Oxford SUNNY 45 18 33 N12G18 30.18R Bridgeport SUNNY 51 14 22 N20G28 30.17R Meriden SUNNY 49 14 24 NW16G22 30.16S New Haven SUNNY 49 18 29 N15G22 30.16S Chester N/A 46 16 29 N12G20 30.15R Groton SUNNY 49 15 25 N15G24 30.15R Wilimantic SUNNY 48 9 20 N15G23 30.17R IN RI CITY SKY/WX TMP DP RH WIND PRES REMARKS Providence MOSUNNY 47 13 25 N9G22 30.15R Block Island SUNNY 46 20 35 N12G17 30.15R Westerly SUNNY 50 13 22 N8G21 30.16R IN MA CITY SKY/WX TMP DP RH WIND PRES REMARKS Boston MOSUNNY 43 16 33 NW13G20 30.18R Worcester SUNNY 40 5 23 N10G25 30.14R WCI 33 Westfield SUNNY 45 17 32 NW14 30.17S Provincetown SUNNY 39 26 59 N14 30.18R WCI 31 Nantucket SUNNY 42 25 50 N20G25 30.14R $$ ANZ330-335-338-340-345-350-353-355-202100- COASTAL MARINE OBSERVATIONS STATION/POSITION TIME SKY/WX TEMP WIND PRES VSBY WAVE AIR SEA DIR/SP/G HT/PER (UTC) (F) (DEG/KT/KT) (MB) (MI) (FT/S) NY HARB ENTRANCE 1850 46 43 290/ 10/ 10 1021.3 2/ 8 20 S FIRE ISLAND 1950 45 41 310/ 10/ 12 1021.0 2/ 8 GREAT SOUTH BAY NOT AVBL 23 SSW MONTAUK P 1950 45 44 1021.5 2/ 3 15 E BARNEGAT LI 1930 43 N/A 2/ 8 HUDSON CANYON 1850 50 1020.1 4/ 5 KINGS POINT 1942 48 40 1021.2 EXECUTION ROCKS NOT AVBL CENTRAL LI SOUND 1915 45 330/ 12/ 14 N/A 1 EASTERN LI SOUND NOT AVBL ROBBINS REEF 1942 52 330/ 13/ 18 1021.7 $$ >>>>>>>>>>>>>>>>>>>>>>>>>>>> KEY <<<<<<<<<<<<<<<<<<<<<<<<<<< > < > SKY/WX - Sky Condition/Present Weather < > TMP - Temperature in Fahrenheit < > DP - Dew Point in Fahrenheit < > RH - Relative Humidity in Percent < > WIND - Direction (from) and Speed in MPH < > PRES - Mean Sea Level Pressure (inches of Hg) < > WCI - Wind Chill Index < > VSB - VISIBILITY IN MILES < > HX - HEAT INDEX < > TC - TEMPERATURE IN CELSIUS < > VRB - VARIABLE WIND DIRECTION < > < >>>>>>>>>>>>>>>>>>>>>>>>>>>> KEY <<<<<<<<<<<<<<<<<<<<<<<<<<<

USA.gov is the U.S. government's official web portal to all federal, state and local government web resources and services.